Location: Martin-Chapon
(46.8066°N, 0.5796°E)
Time: 14:05:03
(UTC+00:00)

Daily predictions for brighter satellites

Satellite Brightness Start Highest point End
(mag) Time Altitude Azimuth Time Altitude Azimuth Time Altitude Azimuth
USA 215 3.4 20:16:57 10° SE 20:23:31 78° SW 20:30:07 10° NW
Cosmos 494 Rocket 4.2 20:19:18 10° NNW 20:24:34 65° ENE 20:29:45 10° SSE
NOSS 2-3 (D) 4.1 20:23:42 10° S 20:26:51 27° ESE 20:30:11 10° ENE
Okean-O 2.7 20:24:41 10° SSE 20:29:05 87° WSW 20:33:32 10° NNW
ARGOS Delta rocket 4.1 20:25:06 10° S 20:29:44 73° W 20:34:42 10° NNW
Gbstr 26 Del rocket 3.5 20:27:21 10° WSW 20:31:34 72° NNW 20:36:44 10° ENE
Timation 2 Rocket 4.4 20:25:48 10° S 20:31:41 42° ESE 20:37:23 10° NE
CZ-4C R/B 3.4 20:30:23 10° NNE 20:33:59 48° E 20:37:25 10° S
Cosmos 1125 Rocket 4.5 20:29:32 10° SSE 20:34:00 28° E 20:38:29 10° NE
USA 276 2.4 20:36:25 10° WNW 20:39:19 57° NNE 20:42:18 10° E
Cosmos 2084 3.5 20:38:03 10° SSW 20:42:03 48° SE 20:45:55 10° NE
SPOT 3 Rocket 4.2 20:38:40 10° SE 20:43:31 41° ENE 20:48:23 10° N
NOSS 2-2 (E) 2.8 20:46:25 10° SSW 20:49:40 53° SE 20:52:43 10° NE
NOSS 2-2 (C) 2.6 20:46:46 10° SW 20:50:00 88° SE 20:53:08 10° NE
In-Cosmos 22 Rocket 4.4 20:46:30 10° S 20:52:06 56° E 20:57:35 10° NNE
Nadezhda 3 Rocket 4.0 20:47:38 10° N 20:53:48 74° E 20:59:57 10° SSE
BREEZE-M DEB (TANK) 3.2 20:51:17 10° WNW 20:54:00 84° NNE 21:01:15 10° ESE
NOSS 2-3 (E) 3.1 20:52:14 10° SSW 20:55:48 60° SE 20:59:44 10° NE
Cosmos 1844 4.1 20:50:42 10° SW 20:56:28 71° WNW 21:02:16 10° NNE
Terra 1.8 20:52:39 10° SSE 20:57:18 72° ENE 21:02:02 10° N
Meteor 1-21 Rocket 4.3 20:57:59 10° SSW 21:03:33 84° WNW 21:09:07 10° N
GP-B 4.2 21:03:29 10° N 21:07:41 44° W 21:11:52 10° SSW
ATLAS CENTAUR R/B 1.3 21:03:43 10° NW 21:07:43 85° SW 21:10:52 17° SSE
Cosmos 1437 Rocket 4.0 21:07:20 17° SE 21:08:54 22° E 21:11:45 10° NE
NOSS 2-3 (C) 3.1 21:09:56 10° SW 21:13:33 89° SE 21:17:35 10° NE
Cosmos 1833 Rocket 3.2 21:08:33 10° NNW 21:14:02 49° ENE 21:18:22 16° SE
Meteor 2-1 Rocket 4.2 21:08:35 10° N 21:14:14 77° ENE 21:18:59 14° SSE
Cosmos 1455 Rocket 3.3 21:11:11 10° NNW 21:15:34 67° W 21:19:45 11° S
Cosmos 1975 Rocket 3.1 21:13:33 10° S 21:18:01 89° ESE 21:22:31 10° N
Cosmos 1025 Rocket 4.1 21:14:27 10° SSW 21:18:31 44° WNW 21:22:37 10° N
Cosmos 44 3.9 21:13:54 10° S 21:18:49 40° ESE 21:23:35 10° NE
Orbus 7S? 3.2 21:17:17 10° WNW 21:19:54 43° SW 21:21:20 22° SSE
Lacrosse 5 2.9 21:16:12 10° WSW 21:21:06 49° NNW 21:26:02 10° NE
ERS-1 Rocket 3.4 21:18:07 10° S 21:23:03 58° W 21:28:00 10° NNW
Spot 2 Rocket 3.6 21:19:30 13° S 21:24:01 78° WSW 21:29:09 10° NNW
Cosmos 220 Rocket 4.0 21:21:27 10° NNW 21:25:34 62° ENE 21:28:09 22° SE
Cosmos 2082 Rocket 3.9 21:22:32 10° N 21:26:53 22° NE 21:31:14 10° E
NOSS 2-2 (D) 3.3 21:24:15 10° SW 21:27:28 58° NW 21:30:35 10° NNE
ATLAS 5 CENTAUR R/B 3.7 21:24:56 10° W 21:27:44 23° NW 21:30:49 10° NNE
Cosmos 2218 Rocket 4.4 21:23:41 17° SSE 21:28:05 43° E 21:33:52 10° NNE
Landsat 5 4.0 21:27:28 10° NNE 21:31:41 43° E 21:34:10 22° SSE
Cosmos 1844 Rocket 4.4 21:27:39 10° WSW 21:32:43 35° NW 21:37:49 10° NNE
Cosmos 2278 Rocket 3.2 21:31:13 20° SE 21:33:41 27° ESE 21:38:20 10° NE
Cosmos 1606 2.6 21:32:22 10° NNW 21:35:56 75° W 21:38:05 22° S
MetOp-A 4.0 21:35:02 22° SE 21:37:50 55° ENE 21:42:05 10° N
Cosmos 2298 Rocket 4.2 21:33:31 14° S 21:37:57 54° ESE 21:43:09 10° NNE
Cosmos 2341 Rocket 4.0 21:33:38 15° S 21:38:58 67° E 21:45:16 10° NNE
Cosmos 614 Rocket 4.3 21:36:37 10° NNW 21:41:36 52° ENE 21:44:35 23° SE
Meteor 1-11 4.4 21:36:27 10° SSW 21:42:11 75° WNW 21:47:54 10° N
Cosmos 1869 3.6 21:44:01 10° NNW 21:47:46 59° W 21:50:08 21° S
Cosmos 1536 Rocket 3.8 21:47:10 27° SSE 21:49:15 50° E 21:53:27 10° NNE
CZ-4C R/B 4.4 21:44:25 10° NNW 21:50:02 29° NNE 21:56:44 10° E
Ariane Rocket 3.7 21:47:26 15° S 21:51:28 49° W 21:56:24 10° NNW
ISS -2.1 21:49:52 10° WNW 21:52:56 33° N 21:56:00 10° ENE
USA 290 4.1 21:58:14 18° E 21:58:14 18° E 21:59:52 10° NE
ARIANE 5 R/B 3.5 21:58:54 25° ESE 22:00:53 38° ENE 22:05:00 10° N
GENESIS II 3.8 21:58:51 10° NW 22:02:26 82° SW 22:03:31 42° SSE
ATLAS 3B R/B 3.7 22:01:26 23° SE 22:03:55 29° ESE 22:10:06 10° NE
BREEZE-M DEB (TANK) 3.3 21:53:38 10° WNW 22:04:26 57° SW 22:06:11 32° SSE
Cosmos 1727 Rocket 4.4 21:59:09 10° N 22:05:21 53° ENE 22:08:48 26° SE
Cosmos 2228 3.1 22:01:53 10° NNW 22:06:04 69° W 22:08:06 29° S
Cosmos 1943 Rocket 3.0 22:08:20 27° SE 22:10:01 32° ESE 22:14:59 10° NE
Geosat 4.4 22:05:42 10° NNE 22:10:40 63° WNW 22:15:37 10° SW
Cosmos 1821 Rocket 4.2 22:09:49 26° SSE 22:13:16 58° E 22:19:31 10° NNE
USA 276 2.9 22:10:41 10° W 22:13:09 34° SW 22:13:09 34° SW
Gbstr 26 Del rocket 4.4 22:14:11 10° WNW 22:18:46 49° N 22:24:25 10° ENE
Cosmos 2058 4.4 22:19:03 21° E 22:19:28 21° E 22:22:34 10° NE
Cosmos 2150 Rocket 4.3 22:14:23 11° SSW 22:19:37 71° WNW 22:25:05 10° NNE
ALOS 2 4.3 22:19:19 18° E 22:21:06 23° ENE 22:24:34 10° NNE
Cosmos 2084 Rocket 4.1 22:21:55 10° NNW 22:25:44 43° NE 22:27:21 28° E
NOSS 3-1 (C) 2.9 22:24:27 17° SSW 22:28:17 79° SE 22:34:07 10° NE
SeaSat 1 3.4 22:26:56 22° ESE 22:29:37 40° NE 22:34:12 10° NNW
Terra 4.2 22:32:50 10° WSW 22:35:24 14° W 22:37:58 10° NW
Cosmos 2366 rocket 4.4 22:30:37 16° SSW 22:35:31 59° WNW 22:41:36 10° N
Cosmos 1812 2.9 22:32:39 10° N 22:36:06 46° ENE 22:36:28 44° E
Aureole 2 4.0 22:41:12 87° E 22:41:12 87° E 22:44:31 10° NNE
Cosmos 1238 Rocket 4.2 22:38:50 10° NNE 22:41:37 22° ENE 22:42:01 22° E
BREEZE-M R/B 3.7 22:37:31 10° WSW 22:41:45 89° SSE 22:55:26 10° ENE
PSLV R/B 3.9 22:40:15 10° NNE 22:44:13 63° ESE 22:44:51 53° SSE
Cosmos 1437 Rocket 4.5 22:42:03 14° WSW 22:44:24 26° WNW 22:47:30 10° NNW
ATLAS CENTAUR R/B 3.9 22:44:10 10° WSW 22:44:42 10° WSW 22:45:14 10° WSW
Cosmos 1892 Rocket 3.7 22:45:05 46° SE 22:46:06 59° E 22:50:28 10° NNE
Cosmos 1140 Rocket 4.1 22:47:46 10° NNW 22:52:44 47° ENE 22:54:49 31° ESE
Cosmos 1833 Rocket 4.0 22:52:54 10° NW 22:57:43 29° WSW 23:00:03 22° SW
MINOTAUR 4 R/B 4.4 22:54:58 10° NNE 22:57:02 41° NE 22:57:02 41° NE
Cosmos 2239 Rocket 4.4 22:55:30 34° S 22:58:24 85° E 23:04:41 10° N
SL-08 R/B 4.4 22:57:34 34° S 23:00:24 87° E 23:06:33 10° N
BREEZE-M DEB (TANK) 3.7 22:58:27 10° WNW 23:01:19 76° NNE 23:08:59 10° ESE
USA 307 4.4 22:58:31 10° NW 23:01:55 29° N 23:05:03 10° ENE
Cosmos-2242 4.2 23:01:14 10° N 23:04:59 30° ENE 23:05:51 28° E
Lacrosse 5 4.1 23:00:47 10° WNW 23:05:02 26° N 23:09:19 10° NE
Cosmos 2123 Rocket 4.1 22:58:56 10° N 23:05:14 70° E 23:07:51 37° SSE
NOSS 3-1 (A) 2.9 23:03:57 41° SSW 23:05:42 70° SE 23:11:32 10° NE
Cosmos 1606 Rocket 4.2 23:01:47 10° NNW 23:05:54 45° W 23:07:01 37° SW
Cosmos 1726 Rocket 3.8 23:03:53 10° NNW 23:08:08 58° W 23:09:05 46° SW
Cosmos 1000 Rocket 4.5 23:03:54 10° NNW 23:10:04 76° W 23:12:37 37° S
Cosmos 2082 Rocket 2.1 23:05:58 10° NNW 23:11:36 76° WSW 23:13:28 43° S
Cosmos 2278 Rocket 2.8 23:12:59 16° SW 23:17:25 53° WNW 23:22:58 10° NNE
ULPM Upper Stage 2.7 23:15:44 10° NW 23:20:08 83° NE 23:20:59 57° SE
Cosmos 2369 Rocket 3.5 23:19:37 23° ESE 23:20:15 24° ESE 23:24:36 10° NE
H-2A R/B 2.2 23:20:31 64° SW 23:20:51 69° WSW 23:24:42 10° NNW
PSLV R/B 4.1 23:17:48 10° NNE 23:21:57 42° E 23:22:20 41° ESE
Cosmos 489 Rocket 4.4 23:24:24 40° S 23:26:40 71° ESE 23:32:52 10° NNE
ISS -3.3 23:26:47 10° WNW 23:30:04 58° NNE 23:30:10 58° NNE
USA 290 4.1 23:30:56 22° W 23:31:43 25° WNW 23:34:27 10° N
USA 229 DEB 3.9 23:32:18 37° SE 23:33:31 41° ESE 23:39:39 10° NE
USA 229 4.0 23:32:27 37° SE 23:33:39 40° ESE 23:39:45 10° NE
Cosmos 2058 Rocket 3.2 23:29:40 10° NNW 23:33:58 60° W 23:34:37 53° SW
Cosmos 1782 2.7 23:30:41 10° N 23:34:28 63° E 23:34:35 63° E
Cosmos 1862 4.4 23:35:38 30° E 23:35:38 30° E 23:38:56 10° NNE
CRYOSAT 2 4.3 23:31:56 10° N 23:36:51 83° E 23:37:58 54° S
ARIANE 5 R/B 4.1 23:36:22 23° WSW 23:37:21 24° W 23:41:01 10° NW
Cosmos 1378 3.6 23:35:23 10° N 23:38:06 42° NE 23:38:06 42° NE
CZ-4C R/B 3.1 23:32:28 10° NW 23:39:33 75° NE 23:45:35 22° SE
COSMOS 2406 3.4 23:35:47 10° NW 23:41:20 57° WSW 23:42:49 44° SSW
Meteor 2-2 Rocket 4.3 23:35:39 10° N 23:41:23 72° ENE 23:43:24 42° SSE
Cosmos 1934 Rocket 4.1 23:39:12 37° SSW 23:41:53 74° W 23:48:07 10° N
Cosmos 2221 4.2 23:42:08 10° NNE 23:45:36 24° ENE 23:46:52 21° E
Cosmos 2285 Rocket 4.3 23:45:58 10° NNW 23:52:22 62° ENE 23:55:34 30° SE
Cosmos 1943 Rocket 3.1 23:49:48 19° WSW 23:53:37 44° NW 23:59:00 10° NNE
Cosmos 2058 4.0 23:54:52 31° WSW 23:55:46 35° WNW 23:59:34 10° N
